Спрингфилд

США     39°48′00″N   89°39′23″W
темп.,
°C
ветер,
м/с
пор.,
м/с
влажн.,
%
обл.,
%
осадки,
мм/ч
давл.,
гПа
погр.,
м
16 октября, сб
сб1601:00+9зсз411640 0.9 1017254
04:00+7зсз411610 0.0 1018233
07:00+6з411660 0.0 1019249
10:00+12зсз610460 0.0 1021646
13:00+15зсз811320 0.0 10201735
16:00+16сз710310 0.0 10201732
19:00+11зсз35450 0.0 102183
22:00+9з37510 0.0 1022105
17 октября, вс
вс1701:00+8з38550 0.0 1022128
04:00+7з37580 0.0 1023105
07:00+7з36590 0.0 102396
10:00+13з47430 0.0 1024345
13:00+18з56320 0.0 1022985
16:00+20з56320 0.0 10201331
19:00+14зюз22490 0.0 102114
22:00+12юз34570 0.0 102152
18 октября, пн
пн1801:00+11зюз35620 0.0 102168
04:00+10зюз34640 0.0 102142
07:00+9юз33680 0.0 102229
10:00+15юз34520 0.0 1022306
13:00+21юз44380 0.0 1020921
16:00+22юз45360 0.0 10181238
19:00+16ю34530 0.0 101841
22:00+14ю49600 0.0 1019146
19 октября, вт
вт1901:00+12ююз49670 0.0 1020155
04:00+11ю386949 0.0 1020135
07:00+11ю4969100 0.0 1020165
10:00+16ю69480 0.0 1020405
13:00+21ююз68340 0.0 10191006
16:00+22ю68320 0.0 10171149
19:00+16ююв412500 0.0 1017247
22:00+15ю513550 0.0 1018312
20 октября, ср
ср2001:00+14ююз412620 0.0 1018257
04:00+13ююз411660 0.0 1018214
07:00+12ю410670 0.0 1018195
10:00+18ююз610495 0.0 1019445
13:00+23ююз7104065 0.0 10161101
16:00+24юз7114797 0.2 10141855
19:00+19зюз51176100 0.5 1014642
22:00+18зюз6128360 0.4 1014676